Location: Temecula
(33.4977°N, 117.1073°W)
Time: 23:33:56
(UTC-08:00)

ISS - Pass Details

Date: 03 October 2022
Orbit: 415 x 420 km, 51.6° (Epoch: 01 December)

Event Time Altitude Azimuth Distance (km) Brightness Sun altitude
Rises 20:32:59 0° 307° (NW) 2,472 1.2 -26.3°
Reaches altitude 10° 20:35:12 10° 301° (WNW) 1,590 0.1 -26.8°
Enters shadow 20:37:15 29° 281° (W) 861 -1.6 -27.2°
